• In Schweiz
  • Länderverzeichnis
  • Für 7 Tage
  • Wassertemperatur
  • Satellitenkarten
  • Wetterkarte
  • Widgets
  • user-avatar
    Anmelden

    Stündliche Wetter Varyash-Bash

    Heute, 25 September, Dienstag

    Zeit Temperatur Niederschläge Wind Luftdruck Luftfeuchtigkeit
    00:00 +14°C° 0 mm 3 m/S 748 mmHg 68%
    01:00 +13°C° 0 mm 3 m/S 748 mmHg 68%
    02:00 +13°C° 0 mm 3 m/S 748 mmHg 69%
    03:00 +13°C° 0 mm 3 m/S 748 mmHg 71%
    04:00 +13°C° 0 mm 3 m/S 748 mmHg 72%
    05:00 +12°C° 0 mm 4 m/S 748 mmHg 74%
    06:00 +12°C° 0 mm 4 m/S 748 mmHg 77%
    07:00 +12°C° 0 mm 4 m/S 748 mmHg 79%
    08:00 +13°C° 0 mm 5 m/S 748 mmHg 77%
    09:00 +15°C° 0 mm 6 m/S 748 mmHg 75%
    10:00 +16°C° 0 mm 6 m/S 748 mmHg 73%
    11:00 +17°C° 0 mm 6 m/S 748 mmHg 69%
    12:00 +17°C° 0 mm 7 m/S 748 mmHg 65%
    13:00 +18°C° 0 mm 7 m/S 748 mmHg 62%
    14:00 +18°C° 0 mm 7 m/S 748 mmHg 60%
    15:00 +19°C° 0 mm 6 m/S 748 mmHg 58%
    16:00 +19°C° 0 mm 6 m/S 747 mmHg 56%
    17:00 +17°C° 0 mm 6 m/S 747 mmHg 58%
    18:00 +16°C° 0 mm 5 m/S 747 mmHg 60%
    19:00 +14°C° 0 mm 4 m/S 747 mmHg 62%
    20:00 +14°C° 0.1 mm 5 m/S 747 mmHg 62%
    21:00 +14°C° 0.1 mm 5 m/S 747 mmHg 63%
    22:00 +14°C° 0.1 mm 5 m/S 747 mmHg 63%
    23:00 +14°C° 0.2 mm 5 m/S 747 mmHg 64%

    Morgen, 26 September, Mittwoch

    Zeit Temperatur Niederschläge Wind Luftdruck Luftfeuchtigkeit
    00:00 +14°C° 0.2 mm 5 m/S 747 mmHg 65%
    01:00 +14°C° 0.2 mm 5 m/S 746 mmHg 66%
    02:00 +14°C° 0.1 mm 6 m/S 747 mmHg 65%
    03:00 +14°C° 0.1 mm 6 m/S 747 mmHg 65%
    04:00 +14°C° 0.1 mm 6 m/S 747 mmHg 64%
    05:00 +14°C° 0 mm 6 m/S 747 mmHg 65%
    06:00 +13°C° 0 mm 6 m/S 747 mmHg 66%
    07:00 +13°C° 0 mm 5 m/S 748 mmHg 66%
    08:00 +13°C° 0 mm 5 m/S 748 mmHg 68%
    09:00 +13°C° 0 mm 5 m/S 749 mmHg 69%
    10:00 +13°C° 0 mm 5 m/S 749 mmHg 70%
    11:00 +13°C° 0.5 mm 5 m/S 750 mmHg 71%
    12:00 +12°C° 0.5 mm 4 m/S 750 mmHg 73%
    13:00 +12°C° 0.5 mm 4 m/S 750 mmHg 75%
    14:00 +12°C° 0.2 mm 4 m/S 751 mmHg 74%
    15:00 +12°C° 0.2 mm 4 m/S 751 mmHg 74%
    16:00 +12°C° 0.2 mm 4 m/S 751 mmHg 74%
    17:00 +11°C° 0.1 mm 4 m/S 751 mmHg 76%
    18:00 +11°C° 0.1 mm 3 m/S 752 mmHg 78%
    19:00 +10°C° 0.1 mm 3 m/S 752 mmHg 80%
    20:00 +10°C° 0.1 mm 3 m/S 752 mmHg 81%
    21:00 +10°C° 0.1 mm 3 m/S 752 mmHg 81%
    22:00 +10°C° 0.1 mm 3 m/S 752 mmHg 82%
    23:00 +9°C° 0 mm 3 m/S 752 mmHg 83%

    übermorgen, 27 September, Donnerstag

    Zeit Temperatur Niederschläge Wind Luftdruck Luftfeuchtigkeit
    00:00 +9°C° 0 mm 3 m/S 752 mmHg 84%
    01:00 +8°C° 0 mm 3 m/S 751 mmHg 86%
    02:00 +8°C° 0 mm 3 m/S 751 mmHg 87%
    03:00 +7°C° 0 mm 3 m/S 751 mmHg 88%
    04:00 +7°C° 0 mm 3 m/S 751 mmHg 89%
    05:00 +6°C° 0 mm 4 m/S 751 mmHg 90%
    06:00 +5°C° 0 mm 4 m/S 751 mmHg 91%
    07:00 +5°C° 0 mm 4 m/S 751 mmHg 92%
    08:00 +6°C° 0 mm 5 m/S 750 mmHg 88%
    09:00 +6°C° 0 mm 5 m/S 750 mmHg 83%
    10:00 +7°C° 0 mm 5 m/S 750 mmHg 79%
    11:00 +7°C° 0 mm 6 m/S 750 mmHg 77%
    12:00 +7°C° 0 mm 6 m/S 749 mmHg 74%
    13:00 +6°C° 0 mm 7 m/S 749 mmHg 72%
    14:00 +8°C° 0 mm 7 m/S 748 mmHg 67%
    15:00 +8°C° 0 mm 7 m/S 748 mmHg 62%
    16:00 +9°C° 0 mm 7 m/S 748 mmHg 58%
    17:00 +8°C° 0 mm 6 m/S 747 mmHg 59%
    18:00 +7°C° 0 mm 6 m/S 747 mmHg 61%
    19:00 +6°C° 0 mm 5 m/S 746 mmHg 63%
    20:00 +6°C° 0.1 mm 5 m/S 746 mmHg 64%
    21:00 +5°C° 0.1 mm 6 m/S 745 mmHg 66%
    22:00 +5°C° 0.1 mm 6 m/S 745 mmHg 67%
    23:00 +5°C° 0.3 mm 6 m/S 744 mmHg 70%

    28 September, Freitag

    Zeit Temperatur Niederschläge Wind Luftdruck Luftfeuchtigkeit
    00:00 +5°C° 0.3 mm 6 m/S 743 mmHg 72%
    01:00 +4°C° 0.3 mm 7 m/S 743 mmHg 75%
    02:00 +4°C° 0.6 mm 6 m/S 742 mmHg 79%
    03:00 +4°C° 0.6 mm 6 m/S 742 mmHg 82%
    04:00 +4°C° 0.6 mm 6 m/S 742 mmHg 86%
    05:00 +4°C° 0.1 mm 6 m/S 742 mmHg 86%
    06:00 +5°C° 0.1 mm 5 m/S 742 mmHg 87%
    07:00 +5°C° 0.1 mm 5 m/S 743 mmHg 87%
    08:00 +5°C° 0 mm 6 m/S 743 mmHg 84%
    09:00 +5°C° 0 mm 6 m/S 744 mmHg 80%
    10:00 +7°C° 0 mm 6 m/S 744 mmHg 77%
    11:00 +6°C° 0 mm 7 m/S 744 mmHg 73%
    12:00 +8°C° 0 mm 7 m/S 745 mmHg 70%
    13:00 +9°C° 0 mm 7 m/S 745 mmHg 66%
    14:00 +8°C° 0 mm 7 m/S 746 mmHg 66%
    15:00 +8°C° 0 mm 7 m/S 746 mmHg 66%
    16:00 +8°C° 0 mm 6 m/S 746 mmHg 67%
    17:00 +8°C° 0 mm 6 m/S 746 mmHg 69%
    18:00 +7°C° 0 mm 5 m/S 746 mmHg 71%
    19:00 +7°C° 0 mm 4 m/S 747 mmHg 74%
    20:00 +7°C° 0 mm 4 m/S 746 mmHg 73%
    21:00 +7°C° 0 mm 5 m/S 746 mmHg 71%
    22:00 +7°C° 0 mm 5 m/S 746 mmHg 70%
    23:00 +7°C° 0.3 mm 6 m/S 745 mmHg 69%

    29 September, Samstag

    Zeit Temperatur Niederschläge Wind Luftdruck Luftfeuchtigkeit
    00:00 +8°C° 0.3 mm 7 m/S 744 mmHg 68%
    01:00 +7°C° 0.3 mm 8 m/S 743 mmHg 67%
    02:00 +7°C° 0.5 mm 9 m/S 742 mmHg 69%
    03:00 +7°C° 0.5 mm 10 m/S 742 mmHg 71%
    04:00 +7°C° 0.5 mm 10 m/S 741 mmHg 73%
    05:00 +8°C° 0.3 mm 10 m/S 741 mmHg 76%
    06:00 +8°C° 0.3 mm 10 m/S 741 mmHg 79%
    07:00 +9°C° 0.3 mm 11 m/S 741 mmHg 82%
    08:00 +8°C° 0.5 mm 10 m/S 742 mmHg 79%
    09:00 +8°C° 0.5 mm 9 m/S 743 mmHg 76%
    10:00 +7°C° 0.5 mm 8 m/S 744 mmHg 73%
    11:00 +9°C° 0 mm 8 m/S 745 mmHg 69%
    12:00 +9°C° 0 mm 8 m/S 746 mmHg 65%
    13:00 +9°C° 0 mm 8 m/S 747 mmHg 61%
    14:00 +9°C° 0 mm 7 m/S 748 mmHg 59%
    15:00 +8°C° 0 mm 6 m/S 749 mmHg 57%
    16:00 +8°C° 0 mm 6 m/S 749 mmHg 55%
    17:00 +7°C° 0 mm 5 m/S 750 mmHg 60%
    18:00 +7°C° 0 mm 3 m/S 751 mmHg 64%
    19:00 +6°C° 0 mm 2 m/S 751 mmHg 68%
    20:00 +5°C° 0 mm 2 m/S 752 mmHg 70%
    21:00 +6°C° 0 mm 1 m/S 752 mmHg 71%
    22:00 +5°C° 0 mm 1 m/S 753 mmHg 73%
    23:00 +5°C° 0 mm 1 m/S 753 mmHg 73%

    30 September, Sonntag

    Zeit Temperatur Niederschläge Wind Luftdruck Luftfeuchtigkeit
    00:00 +5°C° 0 mm 1 m/S 753 mmHg 73%
    01:00 +5°C° 0 mm 1 m/S 754 mmHg 74%
    02:00 +4°C° 0 mm 0 m/S 754 mmHg 74%
    03:00 +4°C° 0 mm 0 m/S 754 mmHg 74%
    04:00 +4°C° 0 mm 0 m/S 754 mmHg 74%
    05:00 +4°C° 0 mm 0 m/S 754 mmHg 75%
    06:00 +4°C° 0 mm 0 m/S 755 mmHg 75%
    07:00 +4°C° 0 mm 0 m/S 755 mmHg 76%
    08:00 +5°C° 0 mm 0 m/S 755 mmHg 72%
    09:00 +7°C° 0 mm 1 m/S 755 mmHg 68%
    10:00 +7°C° 0 mm 1 m/S 755 mmHg 65%
    11:00 +7°C° 0 mm 2 m/S 755 mmHg 62%
    12:00 +8°C° 0 mm 2 m/S 755 mmHg 59%
    13:00 +8°C° 0 mm 2 m/S 755 mmHg 56%
    14:00 +8°C° 0 mm 2 m/S 755 mmHg 56%
    15:00 +8°C° 0 mm 2 m/S 755 mmHg 56%
    16:00 +8°C° 0 mm 2 m/S 755 mmHg 56%
    17:00 +8°C° 0 mm 2 m/S 755 mmHg 58%
    18:00 +7°C° 0 mm 2 m/S 756 mmHg 60%
    19:00 +6°C° 0 mm 2 m/S 756 mmHg 62%
    20:00 +6°C° 0 mm 2 m/S 756 mmHg 63%
    21:00 +6°C° 0 mm 2 m/S 756 mmHg 64%
    22:00 +5°C° 0 mm 2 m/S 757 mmHg 65%
    23:00 +5°C° 0 mm 2 m/S 757 mmHg 69%
    Mehr zeigen